Regional Weather Roundup
Issued by NWS

Home | Current Version | Previous Version | Graphics & Text | Print | Product List | Glossary On
Versions: 1 2 3 4 5 6 7 8 9 10 11 12 13 14 15 16 17 18 19 20 21 22 23 24 25 26 27
000
ASUS45 KBOU 221707
RWRCO

WEATHER ROUNDUP FOR COLORADO
NATIONAL WEATHER SERVICE DENVER/BOULDER CO
1000 AM MST WED FEB 22 2017

NOTE: "FAIR" INDICATES FEW OR NO CLOUDS BELOW 12000 FEET WITH NO
SIGNIFICANT WEATHER AND/OR OBSTRUCTIONS TO VISIBILITY.

COZ001>005-013-030-031-221800-
...NORTHWEST COLORADO...

CITY           SKY/WX    TMP DP  RH WIND       PRES   REMARKS
CRAIG          CLOUDY    34  28  79 CALM      29.97F
HAYDEN         CLOUDY    32  25  74 W3        29.96F
MEEKER         CLOUDY    46  30  53 W14       29.91F
MOUNT WERNER   NOT AVBL
STEAMBOAT SPGS FAIR      32  26  77 CALM      29.95F
WALDEN         NOT AVBL
$$

COZ006>008-011-221800-
...WEST CENTRAL VALLEYS...

CITY           SKY/WX    TMP DP  RH WIND       PRES   REMARKS
GRAND JUNCTION PTSUNNY   54  34  46 VRB3      29.92F
MONTROSE       FAIR      50  30  46 NW6       29.98F
EAGLE          PTSUNNY   48  23  37 W17G23    29.95F
RIFLE          CLOUDY    53  29  39 MISG      29.92F
DELTA          CLOUDY    57  34  41 SE7       29.96F
NUCLA          FAIR      50  32  50 SW10G18   30.04F
$$

COZ017>023-064>068-221800-
...SOUTHWEST COLORADO...

CITY           SKY/WX    TMP DP  RH WIND       PRES   REMARKS
DURANGO        FAIR      42  36  79 CALM      30.09F
CORTEZ         FAIR      51  37  58 W3        30.05F
PAGOSA SPRINGS FAIR      40  35  81 CALM      30.12F
TELLURIDE      FAIR      42  10  27 W13G21    30.07F
WOLF CREEK PAS SNOW      23  23 100 SW25G37   30.17F VSB<1/4 WCI   7
$$

COZ009-010-012-014-032>034-037-058>063-221800-
...CENTRAL COLORADO...

CITY           SKY/WX    TMP DP  RH WIND       PRES   REMARKS
ASPEN          PTSUNNY   43  19  38 VRB3      29.95F
BUENA VISTA    FAIR      47  15  27 W13G24    29.97F
COPPER MTN     LGT SNOW  28  12  50 MISG      30.02S
BERTHOUD PASS  PTSUNNY   21  10  63 W44G61    29.94F WCI   0
COTTONWOOD PAS CLOUDY    39  12  33 SW14G35   30.01F
GUNNISON       FAIR      36  20  52 NE9       30.02F
KREMMLING      CLOUDY    46  27  46 W14G20    29.94S
LEADVILLE      FAIR      34   8  33 SW8G18    29.98F WCI  27
SALIDA         FAIR      51  15  24 W15G23    30.07S
SUNLIGHT       NOT AVBL
WILKERSON PASS FAIR      32  12  43 SW12G30   30.05S WCI  23
$$

COZ069>075-221800-
...SAN LUIS VALLEY/SANGRE DE CRISTO MOUNTAINS...

CITY           SKY/WX    TMP DP  RH WIND       PRES   REMARKS
ALAMOSA        FAIR      45  23  42 W14       30.05F
LA VETA PASS   FAIR      37  23  56 N16G32    30.13R
SAGUACHE       FAIR      45  19  36 CALM      30.03F
$$

COZ035-036-038>040-221800-
...NORTHERN COLORADO FRONT RANGE...

CITY           SKY/WX    TMP DP  RH WIND       PRES   REMARKS
DENVER INTL AP FAIR      47  25  42 E17       29.88F
DMNS CITY PARK   N/A     49  24  38 NE13G21   29.87F
AURORA         MOSUNNY   48  25  41 E14       29.89F
FRONT RANGE AP MOSUNNY   48  27  43 E13G20    29.90F
ERIE MUNI ARPT FAIR      47  23  39 E9        29.90S
BOULDER MUN AP FAIR      46  27  46 E7        29.89S
CENTENNIAL     FAIR      54  23  30 N8        29.87F
BROOMFIELD     MOSUNNY   46  25  42 E8        29.89F
FORT COLLINS   FAIR      49  26  41 W3        29.89R
LONGMONT       FAIR      48  26  41 SE8       29.91S
$$

COZ041-046-047-076>085-087-088-221800-
...PIKES PEAK/PALMER DIVIDE AND SOUTHERN FOOTHILLS...

CITY           SKY/WX    TMP DP  RH WIND       PRES   REMARKS
COLO. SPRINGS  FAIR      59   6  12 W24G32    29.89F
A. F. ACADEMY  FAIR      56   8  14 W20G33    29.88S
SCHRIEVER AFB  FAIR      58   7  13 W31G39    29.89F
ELLICOTT       FAIR     N/A N/A N/A W28G37    29.89F
FALCON         FAIR      55   5  13 W32G39    29.92F
FORT CARSON    FAIR      58  12  16 SW36G46   29.84F
LIMON          FAIR      50  25  37 NE7       29.91F
MONUMENT HILL  FAIR      52  10  19 W28G36    29.93S
TRINIDAD       FAIR      65  15  14 W24G41    29.92F
$$

COZ042>045-048>051-090-091-221800-
...NORTHEAST COLORADO...

CITY           SKY/WX    TMP DP  RH WIND       PRES   REMARKS
GREELEY ARPT   FAIR      53  24  32 N16       29.89R
AKRON          FAIR      51  19  28 NW15      29.88F
BURLINGTON     FAIR      57  27  31 N12       29.89S
WRAY           NOT AVBL
STERLING       FAIR      55  19  24 N15G21    29.85F
HOLYOKE        FAIR      57  27  30 W10       29.85F
FORT MORGAN    FAIR      54  18  24 NW20      29.89F
$$

COZ086-089-092>099-221800-
...SOUTHEAST COLORADO...

CITY           SKY/WX    TMP DP  RH WIND       PRES   REMARKS
PUEBLO         FAIR      65  19  17 W18       29.85F
LA JUNTA       FAIR      66  23  19 N6        29.87F
LAMAR          FAIR      61  29  29 NE13      29.87S
SPRINGFIELD      N/A     68  20  16 W15G28    29.88S
$$




USA.gov is the U.S. government's official web portal to all federal, state and local government web resources and services.